GFSGBSN_prec_precacc_270.txt.gz
Total_Precipitation_Accumulation
0.66 0.83 0.84 0.64 0.58 0.57 0.45 0.35 0.26 0.18 0.12 0.09 0.08 0.07 0.06 0.06 0.06 0.04 0.03 0.02 0.03 0.02 0.02 0.02 0.03 0.03 0.17 0.32 0.09 0.00 0.00 0.00 0.00 0.00 0.00 0.00 0.00 0.00 0.00 0.00 0.00 0.00 0.00 0.00 0.00 0.03 0.02
0.84 0.81 0.99 0.90 0.73 0.63 0.62 0.47 0.29 0.19 0.14 0.11 0.09 0.08 0.06 0.06 0.06 0.05 0.05 0.04 0.04 0.04 0.04 0.03 0.05 0.18 0.57 0.61 0.02 0.00 0.00 0.00 0.00 0.00 0.00 0.00 0.01 0.01 0.02 0.00 0.00 0.00 0.00 0.00 0.00 0.02 0.02
1.19 0.95 0.79 0.85 0.73 0.55 0.52 0.56 0.45 0.36 0.31 0.23 0.16 0.11 0.07 0.06 0.06 0.05 0.04 0.05 0.05 0.05 0.05 0.06 0.10 0.41 1.21 0.29 0.00 0.00 0.00 0.00 0.00 0.00 0.01 0.01 0.02 0.05 0.09 0.05 0.01 0.02 0.03 0.01 0.00 0.01 0.02
1.78 1.54 1.39 1.37 1.34 1.06 0.85 0.75 0.69 0.46 0.33 0.25 0.17 0.11 0.10 0.06 0.06 0.05 0.05 0.04 0.04 0.06 0.08 0.12 0.29 1.12 1.74 0.03 0.00 0.00 0.00 0.00 0.00 0.00 0.00 0.01 0.03 0.10 0.15 0.13 0.10 0.11 0.17 0.11 0.03 0.01 0.02
2.09 2.09 2.03 1.87 1.71 1.64 1.40 1.21 1.10 1.02 0.76 0.57 0.46 0.35 0.24 0.13 0.10 0.09 0.08 0.10 0.13 0.16 0.24 0.42 1.09 1.41 0.91 0.06 0.03 0.00 0.00 0.02 0.01 0.00 0.01 0.06 0.17 0.25 0.34 0.44 0.44 0.23 0.17 0.09 0.02 0.00 0.02
2.03 1.89 1.87 1.90 1.73 1.61 1.53 1.29 1.22 1.14 1.08 0.89 0.78 0.70 0.52 0.31 0.22 0.14 0.14 0.32 0.50 0.52 0.44 0.74 1.77 1.76 0.60 0.11 0.00 0.00 0.00 0.01 0.04 0.05 0.07 0.13 0.33 0.49 0.53 0.60 0.53 0.16 0.10 0.04 0.02 0.00 0.02
1.93 1.72 1.60 1.68 1.59 1.42 1.31 1.20 1.00 0.89 0.85 0.76 0.68 0.64 0.58 0.48 0.37 0.34 0.44 0.70 0.85 0.67 0.53 0.28 0.40 0.18 0.01 0.00 0.02 0.01 0.00 0.11 0.26 0.56 0.30 0.19 0.40 0.61 0.25 0.13 0.14 0.12 0.13 0.11 0.04 0.00 0.05
1.58 1.56 1.39 1.32 1.36 1.27 1.22 1.23 1.11 1.00 0.82 0.70 0.56 0.47 0.42 0.41 0.37 0.33 0.46 0.64 0.47 0.76 0.87 0.11 0.02 0.02 0.00 0.01 0.15 0.25 0.22 0.50 0.69 0.81 0.56 1.05 0.82 0.12 0.07 0.09 0.19 0.24 0.28 0.17 0.06 0.02 0.14
1.92 1.80 1.64 1.44 1.36 1.40 1.24 1.12 1.04 1.01 0.87 0.67 0.58 0.50 0.41 0.34 0.38 0.36 0.31 0.36 0.36 0.94 2.59 0.90 0.03 0.01 0.00 0.07 0.05 0.08 0.20 0.43 0.62 0.74 0.81 0.79 0.50 0.22 0.22 0.29 0.37 0.32 0.23 0.14 0.13 0.12 0.23
1.87 1.75 1.77 1.72 1.65 1.71 1.70 1.53 1.38 1.17 1.14 0.78 0.59 0.57 0.53 0.51 0.43 0.31 0.42 0.39 0.34 1.01 4.41 2.30 0.04 0.04 0.04 0.07 0.10 0.01 0.09 0.20 0.52 0.81 0.86 1.10 0.41 0.31 0.60 0.81 0.92 1.18 0.61 0.42 0.40 0.59 0.56
1.80 1.72 1.63 1.62 1.62 1.85 2.03 1.99 1.73 1.61 1.53 1.18 0.76 0.63 0.60 0.68 0.44 0.47 0.56 0.48 0.71 2.52 6.60 1.86 0.03 0.05 0.03 0.08 0.11 0.04 0.02 0.31 0.39 0.32 0.80 1.33 0.68 0.38 0.51 0.58 0.47 0.63 0.52 0.91 1.35 1.64 1.89
1.60 1.52 1.60 1.65 1.58 1.64 1.88 2.02 1.93 1.58 1.50 1.54 0.97 0.86 0.96 0.70 0.49 0.41 0.44 0.78 2.61 6.08 5.77 0.78 0.03 0.08 0.22 0.21 0.13 0.12 0.12 0.35 0.46 0.64 0.66 0.42 0.19 0.38 0.54 0.55 0.72 0.85 1.05 1.38 1.49 1.69 2.97
1.31 1.32 1.31 1.39 1.43 1.58 2.02 2.03 2.13 1.79 1.78 1.84 1.42 1.06 1.05 0.71 0.60 0.50 0.67 2.32 6.05 6.23 1.43 0.17 0.07 0.12 0.20 0.30 0.39 0.45 0.63 0.75 1.09 1.40 0.87 0.41 0.21 0.07 0.21 0.47 0.54 1.03 1.93 3.26 3.31 3.14 2.92
1.50 1.33 1.24 1.25 1.24 1.26 1.78 2.06 2.10 2.10 1.97 2.20 1.99 1.53 1.14 0.67 0.61 1.01 1.98 4.71 6.67 1.97 0.24 0.06 0.04 0.07 0.24 0.42 0.52 0.57 0.83 1.09 1.21 1.44 1.66 1.44 0.94 0.34 0.37 0.56 0.65 0.58 1.34 3.14 3.62 1.97 1.20
1.64 1.54 1.39 1.28 1.18 1.21 1.43 2.04 2.13 2.31 2.31 2.53 2.81 2.14 1.53 0.61 0.58 1.80 4.36 6.30 2.97 0.65 0.37 0.24 0.11 0.45 0.68 0.76 0.97 0.76 0.68 0.97 1.58 2.44 3.66 3.58 2.70 1.07 0.63 0.53 0.71 0.87 1.18 1.28 2.62 2.08 2.93
1.80 1.81 1.61 1.52 1.25 1.27 1.44 2.13 2.24 2.50 2.51 2.83 3.34 2.88 1.50 0.42 0.97 2.89 5.96 4.31 1.07 0.40 0.75 0.91 1.27 1.22 1.20 0.86 1.30 1.58 1.60 1.77 1.73 2.04 2.67 3.83 3.64 1.59 1.33 1.25 1.19 1.32 1.50 2.62 4.33 6.15 4.75
2.00 1.98 1.65 1.59 1.41 1.31 1.43 2.22 2.54 2.43 2.81 3.11 3.45 3.56 1.35 0.69 2.55 5.04 5.39 2.08 0.50 0.13 0.28 1.13 1.71 1.65 1.13 1.06 1.33 1.50 1.65 1.24 1.09 1.42 1.67 2.31 3.34 1.53 0.97 1.65 2.24 2.34 2.83 3.57 4.99 5.41 5.09
2.22 2.20 1.87 1.76 1.65 1.45 1.51 2.16 2.77 2.83 3.64 4.36 4.31 3.47 1.31 1.60 3.79 4.34 2.59 0.97 0.47 0.25 0.29 0.81 1.13 1.27 1.33 1.34 1.49 2.07 1.60 1.20 0.65 0.81 1.13 1.23 2.45 1.36 0.88 0.62 0.84 1.41 2.60 4.03 5.77 5.27 4.78
2.53 2.40 2.03 1.95 1.91 1.60 1.54 2.00 2.99 3.28 4.19 4.96 5.10 2.90 2.18 2.61 3.20 2.02 1.02 0.57 0.54 0.51 0.45 0.96 1.11 1.35 1.51 1.59 1.82 1.36 1.49 0.92 0.70 0.95 1.39 1.43 2.28 1.91 1.16 1.06 1.27 1.42 1.62 2.38 3.68 4.72 4.97
2.56 2.52 2.21 2.10 2.24 1.95 1.68 1.93 3.07 3.35 4.22 5.38 5.72 3.99 3.97 4.51 2.04 0.94 0.98 0.95 0.86 0.56 0.57 0.77 1.18 1.30 1.32 1.08 1.00 1.19 0.90 0.51 0.33 0.45 0.76 1.41 2.21 1.75 1.59 1.49 1.78 1.96 1.60 1.64 2.70 4.36 3.45
2.82 2.67 2.36 2.17 2.44 2.20 1.93 1.93 3.03 3.72 4.70 6.49 7.28 3.54 1.73 2.50 1.95 1.11 1.08 1.36 0.93 0.79 0.73 0.64 1.09 1.04 1.23 1.42 0.83 0.66 0.66 0.47 0.30 0.30 0.41 1.04 2.08 1.22 0.99 1.00 0.83 1.14 1.45 1.62 1.92 2.05 2.64
2.84 2.74 2.55 2.28 2.50 2.34 2.11 2.13 2.93 4.06 5.68 8.34 7.13 2.16 1.18 0.75 0.53 1.13 1.98 1.89 1.01 0.72 1.09 0.84 0.79 0.54 0.83 1.23 1.12 0.94 0.85 0.90 0.78 0.48 0.55 0.72 1.41 1.18 0.99 0.76 0.59 0.87 1.10 0.81 0.97 1.52 1.73
3.04 2.97 2.87 2.64 2.71 2.41 2.53 2.50 3.05 4.14 6.45 9.49 5.54 1.75 2.11 1.41 0.73 1.28 1.28 1.05 0.87 0.95 0.91 0.75 0.91 1.17 1.00 0.71 0.70 0.73 0.65 0.75 0.80 0.86 0.89 0.86 1.09 1.19 0.96 0.43 0.66 1.53 1.34 0.74 0.57 0.62 0.68
3.03 3.11 2.84 3.19 2.97 2.61 2.54 2.83 3.55 4.26 5.05 5.29 3.51 1.75 2.90 2.42 1.33 0.90 0.65 0.74 0.76 0.90 1.16 0.62 0.69 0.89 0.65 0.50 0.59 0.65 0.59 0.43 0.46 0.45 0.82 1.22 0.96 1.33 1.04 0.84 1.87 1.32 0.52 0.42 0.31 0.33 0.43
2.78 3.09 2.71 2.96 3.34 2.87 2.49 2.73 3.88 4.30 3.71 3.58 2.76 2.44 3.02 2.25 0.85 0.83 0.83 0.75 0.63 0.72 0.90 0.66 0.59 0.67 0.74 0.87 1.33 1.12 0.83 0.70 0.31 0.30 0.33 0.53 1.11 1.69 1.41 0.93 0.80 0.47 0.25 0.32 0.39 0.38 0.26
2.85 3.01 2.56 2.69 3.14 3.20 2.73 2.80 3.68 4.15 3.60 3.58 2.62 2.75 3.86 3.35 1.32 0.55 1.00 1.11 1.00 0.92 0.99 0.69 0.48 0.36 0.73 1.19 1.64 1.38 0.82 0.66 0.48 0.43 0.37 0.65 1.09 2.22 1.93 1.43 0.87 0.52 0.14 0.12 0.38 0.83 0.26
3.35 3.05 2.59 2.51 2.71 2.99 3.07 3.07 3.14 3.64 3.79 3.81 3.08 2.37 4.47 4.25 1.00 0.58 0.76 0.88 0.98 1.00 1.20 0.93 0.84 0.89 1.09 1.61 1.67 1.12 0.85 0.61 0.83 0.66 0.71 1.06 1.72 2.46 2.31 2.47 1.18 0.36 0.16 0.17 0.97 1.24 0.37
3.32 3.28 2.40 2.30 2.44 2.36 2.52 3.19 3.42 3.26 3.69 4.55 3.61 2.08 3.05 3.67 1.28 0.65 0.57 0.63 0.62 0.82 1.27 1.43 1.64 1.86 1.97 2.09 1.77 1.31 1.09 1.00 0.89 0.76 0.78 1.13 1.56 1.67 1.94 2.48 1.86 0.56 0.57 0.90 1.12 0.50 0.23
2.96 3.28 2.41 2.27 2.38 2.25 2.05 2.39 3.45 3.47 3.52 4.48 4.40 2.73 2.92 3.39 2.03 0.88 0.44 0.40 0.44 0.58 0.95 1.21 1.56 1.49 2.18 2.45 1.91 1.29 1.06 1.09 0.89 1.20 0.68 1.11 0.93 1.16 1.29 1.78 1.42 1.10 1.03 0.64 0.39 0.48 0.39

GFSGBSN_prec_precacc_273.txt.gz
Total_Precipitation_Accumulation
0.66 0.83 0.84 0.64 0.59 0.60 0.48 0.37 0.27 0.18 0.12 0.09 0.08 0.07 0.06 0.06 0.06 0.04 0.03 0.02 0.03 0.02 0.02 0.02 0.03 0.03 0.17 0.32 0.09 0.00 0.00 0.00 0.00 0.00 0.00 0.00 0.00 0.00 0.00 0.00 0.00 0.00 0.00 0.00 0.00 0.03 0.02
0.84 0.81 0.99 0.90 0.73 0.65 0.66 0.51 0.32 0.20 0.14 0.11 0.09 0.08 0.06 0.06 0.06 0.05 0.05 0.04 0.04 0.04 0.04 0.03 0.05 0.18 0.57 0.61 0.02 0.00 0.00 0.00 0.00 0.00 0.00 0.00 0.01 0.01 0.02 0.00 0.00 0.00 0.00 0.00 0.00 0.02 0.02
1.19 0.95 0.79 0.85 0.73 0.56 0.56 0.62 0.49 0.38 0.31 0.23 0.16 0.11 0.07 0.06 0.06 0.05 0.04 0.05 0.05 0.05 0.05 0.06 0.10 0.41 1.21 0.29 0.00 0.00 0.00 0.00 0.00 0.00 0.01 0.01 0.02 0.05 0.09 0.05 0.01 0.02 0.03 0.01 0.00 0.01 0.02
1.79 1.54 1.39 1.37 1.34 1.07 0.87 0.81 0.78 0.54 0.35 0.25 0.17 0.11 0.10 0.06 0.06 0.05 0.05 0.04 0.04 0.06 0.08 0.12 0.29 1.12 1.74 0.03 0.00 0.00 0.00 0.00 0.00 0.00 0.00 0.01 0.03 0.10 0.15 0.13 0.10 0.11 0.17 0.11 0.03 0.01 0.02
2.10 2.09 2.03 1.87 1.71 1.64 1.41 1.25 1.18 1.13 0.81 0.58 0.46 0.35 0.24 0.13 0.10 0.09 0.08 0.10 0.13 0.16 0.24 0.42 1.09 1.41 0.91 0.06 0.03 0.00 0.00 0.02 0.01 0.00 0.01 0.06 0.17 0.25 0.34 0.44 0.44 0.23 0.17 0.09 0.02 0.00 0.02
2.03 1.90 1.87 1.90 1.73 1.61 1.54 1.31 1.29 1.22 1.20 0.92 0.78 0.70 0.52 0.31 0.22 0.14 0.14 0.32 0.50 0.52 0.44 0.74 1.77 1.76 0.60 0.11 0.00 0.00 0.00 0.01 0.04 0.05 0.07 0.13 0.33 0.49 0.53 0.60 0.53 0.16 0.10 0.04 0.02 0.00 0.02
1.93 1.72 1.60 1.68 1.59 1.42 1.31 1.20 1.03 0.97 0.95 0.86 0.69 0.64 0.58 0.48 0.37 0.34 0.44 0.70 0.85 0.67 0.53 0.28 0.40 0.18 0.01 0.00 0.02 0.01 0.00 0.11 0.26 0.56 0.30 0.19 0.40 0.61 0.25 0.13 0.14 0.12 0.13 0.11 0.04 0.00 0.05
1.59 1.56 1.39 1.33 1.36 1.27 1.22 1.23 1.12 1.05 0.93 0.85 0.61 0.47 0.42 0.41 0.37 0.33 0.46 0.64 0.47 0.76 0.87 0.11 0.02 0.02 0.00 0.01 0.15 0.25 0.22 0.50 0.69 0.81 0.56 1.05 0.82 0.12 0.07 0.09 0.19 0.24 0.28 0.17 0.06 0.02 0.14
1.93 1.80 1.64 1.45 1.36 1.40 1.24 1.12 1.04 1.02 0.99 0.83 0.73 0.51 0.41 0.34 0.38 0.36 0.31 0.36 0.36 0.94 2.59 0.90 0.03 0.01 0.00 0.07 0.05 0.08 0.20 0.43 0.62 0.74 0.81 0.79 0.50 0.22 0.22 0.29 0.37 0.32 0.23 0.14 0.13 0.12 0.23
1.87 1.75 1.77 1.72 1.65 1.71 1.70 1.53 1.39 1.17 1.18 0.99 0.77 0.62 0.54 0.51 0.43 0.31 0.42 0.39 0.34 1.01 4.42 2.30 0.04 0.04 0.04 0.07 0.10 0.01 0.09 0.20 0.52 0.81 0.86 1.10 0.41 0.31 0.60 0.81 0.92 1.18 0.61 0.42 0.40 0.59 0.56
1.80 1.72 1.63 1.62 1.63 1.85 2.03 1.99 1.74 1.63 1.54 1.38 1.14 0.74 0.62 0.68 0.44 0.47 0.56 0.48 0.71 2.52 6.61 1.87 0.03 0.05 0.03 0.08 0.11 0.04 0.02 0.31 0.39 0.32 0.80 1.33 0.68 0.38 0.51 0.58 0.47 0.63 0.52 0.91 1.35 1.64 1.89
1.61 1.52 1.60 1.65 1.58 1.64 1.88 2.02 1.94 1.61 1.51 1.63 1.35 1.09 0.99 0.71 0.49 0.41 0.44 0.78 2.61 6.08 5.77 0.78 0.03 0.08 0.22 0.21 0.13 0.12 0.12 0.35 0.46 0.64 0.66 0.42 0.19 0.38 0.54 0.55 0.72 0.85 1.05 1.38 1.49 1.69 2.97
1.31 1.33 1.31 1.39 1.43 1.58 2.02 2.03 2.15 1.81 1.80 1.88 1.77 1.39 1.14 0.71 0.60 0.50 0.67 2.32 6.05 6.23 1.43 0.17 0.07 0.12 0.20 0.30 0.39 0.45 0.63 0.75 1.09 1.40 0.87 0.41 0.21 0.07 0.21 0.47 0.54 1.03 1.93 3.26 3.31 3.14 2.92
1.51 1.34 1.25 1.25 1.24 1.26 1.78 2.06 2.11 2.14 1.99 2.22 2.25 1.91 1.42 0.69 0.61 1.01 1.98 4.71 6.67 1.97 0.24 0.06 0.04 0.07 0.24 0.42 0.52 0.57 0.83 1.09 1.21 1.44 1.66 1.44 0.94 0.34 0.37 0.56 0.65 0.58 1.34 3.14 3.62 1.97 1.20
1.64 1.54 1.40 1.29 1.18 1.21 1.43 2.04 2.14 2.33 2.34 2.56 3.10 2.66 2.01 0.71 0.60 1.80 4.36 6.30 2.97 0.65 0.37 0.24 0.11 0.45 0.68 0.76 0.97 0.76 0.68 0.97 1.58 2.44 3.66 3.58 2.70 1.07 0.63 0.53 0.71 0.87 1.18 1.28 2.62 2.08 2.93
1.80 1.81 1.62 1.53 1.25 1.27 1.44 2.13 2.26 2.52 2.56 2.94 3.73 3.63 2.11 0.51 1.00 2.90 5.96 4.31 1.07 0.40 0.75 0.91 1.27 1.22 1.20 0.86 1.30 1.58 1.60 1.77 1.73 2.04 2.67 3.83 3.64 1.59 1.33 1.25 1.19 1.32 1.50 2.62 4.33 6.15 4.75
2.00 1.98 1.65 1.60 1.41 1.31 1.43 2.22 2.58 2.48 2.85 3.24 3.86 4.47 1.92 0.90 2.62 5.08 5.39 2.08 0.50 0.13 0.28 1.13 1.71 1.65 1.13 1.06 1.33 1.50 1.65 1.24 1.09 1.42 1.67 2.31 3.34 1.53 0.97 1.65 2.24 2.34 2.83 3.57 4.99 5.41 5.09
2.22 2.20 1.87 1.76 1.65 1.45 1.51 2.17 2.82 2.89 3.69 4.59 4.94 4.30 1.85 1.88 4.01 4.44 2.59 0.97 0.47 0.25 0.29 0.81 1.13 1.27 1.33 1.34 1.49 2.07 1.60 1.20 0.65 0.81 1.13 1.23 2.45 1.36 0.88 0.62 0.84 1.41 2.60 4.03 5.77 5.27 4.78
2.53 2.40 2.03 1.95 1.91 1.61 1.55 2.01 3.03 3.36 4.29 5.28 5.85 3.61 2.83 2.97 3.36 2.05 1.03 0.57 0.54 0.51 0.45 0.96 1.11 1.35 1.51 1.59 1.82 1.36 1.49 0.92 0.70 0.95 1.39 1.43 2.28 1.91 1.16 1.06 1.27 1.42 1.62 2.38 3.68 4.72 4.97
2.56 2.52 2.21 2.11 2.25 1.96 1.69 1.95 3.12 3.44 4.36 5.92 6.49 4.74 4.61 4.87 2.08 0.95 0.98 0.95 0.86 0.56 0.57 0.77 1.18 1.30 1.32 1.08 1.00 1.19 0.90 0.51 0.33 0.45 0.76 1.41 2.21 1.75 1.59 1.49 1.78 1.96 1.60 1.64 2.70 4.36 3.45
2.82 2.67 2.36 2.17 2.45 2.20 1.94 1.95 3.08 3.82 4.95 7.22 8.04 4.18 2.17 2.73 1.97 1.12 1.09 1.36 0.93 0.79 0.73 0.64 1.09 1.04 1.23 1.42 0.83 0.66 0.66 0.47 0.30 0.30 0.41 1.04 2.08 1.22 0.99 1.00 0.83 1.14 1.45 1.62 1.92 2.05 2.64
2.84 2.74 2.55 2.28 2.51 2.35 2.13 2.18 2.97 4.17 6.12 9.09 7.66 2.53 1.31 0.79 0.54 1.14 1.98 1.89 1.01 0.72 1.09 0.84 0.79 0.54 0.83 1.23 1.12 0.94 0.85 0.90 0.78 0.48 0.55 0.72 1.41 1.18 0.99 0.76 0.59 0.87 1.10 0.81 0.97 1.52 1.73
3.04 2.97 2.87 2.65 2.73 2.42 2.55 2.53 3.08 4.29 7.02 10.04 5.85 1.92 2.18 1.42 0.74 1.29 1.28 1.05 0.87 0.95 0.91 0.75 0.91 1.17 1.00 0.71 0.70 0.73 0.65 0.75 0.80 0.86 0.89 0.86 1.09 1.19 0.96 0.43 0.66 1.53 1.34 0.74 0.57 0.62 0.68
3.03 3.12 2.84 3.20 2.99 2.63 2.56 2.87 3.58 4.42 5.54 5.58 3.66 1.86 2.99 2.44 1.33 0.90 0.65 0.74 0.76 0.90 1.16 0.62 0.69 0.89 0.65 0.50 0.59 0.65 0.59 0.43 0.46 0.45 0.82 1.22 0.96 1.33 1.04 0.84 1.87 1.32 0.52 0.42 0.31 0.33 0.43
2.78 3.09 2.71 2.97 3.36 2.88 2.50 2.76 3.90 4.43 3.95 3.71 2.90 2.58 3.10 2.28 0.85 0.83 0.83 0.75 0.63 0.72 0.90 0.66 0.59 0.67 0.74 0.87 1.33 1.12 0.83 0.70 0.31 0.30 0.33 0.53 1.11 1.69 1.41 0.93 0.80 0.47 0.25 0.32 0.39 0.38 0.26
2.85 3.01 2.57 2.71 3.15 3.21 2.74 2.81 3.69 4.23 3.73 3.74 2.77 2.91 3.93 3.36 1.32 0.55 1.00 1.11 1.00 0.92 0.99 0.69 0.48 0.36 0.73 1.19 1.64 1.38 0.82 0.66 0.48 0.43 0.37 0.65 1.09 2.22 1.93 1.43 0.87 0.52 0.14 0.12 0.38 0.83 0.26
3.35 3.05 2.61 2.54 2.72 3.00 3.07 3.08 3.15 3.72 3.94 4.04 3.21 2.50 4.63 4.28 1.01 0.58 0.76 0.88 0.98 1.00 1.20 0.93 0.84 0.89 1.09 1.61 1.67 1.12 0.85 0.61 0.83 0.66 0.71 1.06 1.72 2.46 2.31 2.47 1.18 0.36 0.16 0.17 0.97 1.24 0.37
3.33 3.29 2.43 2.32 2.45 2.36 2.52 3.19 3.44 3.35 3.88 4.81 3.75 2.20 3.25 3.77 1.29 0.65 0.57 0.63 0.62 0.82 1.27 1.43 1.64 1.86 1.97 2.09 1.77 1.31 1.09 1.00 0.89 0.76 0.78 1.13 1.56 1.67 1.94 2.48 1.86 0.56 0.57 0.90 1.12 0.50 0.23
2.98 3.30 2.43 2.28 2.39 2.25 2.05 2.40 3.47 3.58 3.75 4.72 4.57 2.83 3.02 3.44 2.05 0.88 0.45 0.40 0.44 0.58 0.95 1.21 1.56 1.49 2.18 2.45 1.91 1.29 1.06 1.09 0.89 1.20 0.68 1.11 0.93 1.16 1.29 1.78 1.42 1.10 1.03 0.64 0.39 0.48 0.39

GFSGBSN_prec_precacc_276.txt.gz
Total_Precipitation_Accumulation
0.66 0.83 0.84 0.64 0.59 0.60 0.51 0.41 0.30 0.19 0.12 0.09 0.08 0.07 0.06 0.06 0.06 0.04 0.03 0.02 0.03 0.02 0.02 0.02 0.03 0.03 0.17 0.32 0.09 0.00 0.00 0.00 0.00 0.00 0.00 0.00 0.00 0.00 0.00 0.00 0.00 0.00 0.00 0.00 0.00 0.03 0.02
0.84 0.81 0.99 0.90 0.73 0.65 0.68 0.56 0.37 0.22 0.14 0.11 0.09 0.08 0.06 0.06 0.06 0.05 0.05 0.04 0.04 0.04 0.04 0.03 0.05 0.18 0.57 0.61 0.02 0.00 0.00 0.00 0.00 0.00 0.00 0.00 0.01 0.01 0.02 0.00 0.00 0.00 0.00 0.00 0.00 0.02 0.02
1.20 0.95 0.79 0.85 0.73 0.56 0.56 0.64 0.57 0.43 0.32 0.23 0.16 0.11 0.07 0.06 0.06 0.05 0.04 0.05 0.05 0.05 0.05 0.06 0.10 0.41 1.21 0.29 0.00 0.00 0.00 0.00 0.00 0.00 0.01 0.01 0.02 0.05 0.09 0.05 0.01 0.02 0.03 0.01 0.00 0.01 0.02
1.79 1.54 1.39 1.37 1.34 1.07 0.88 0.82 0.82 0.63 0.42 0.26 0.17 0.11 0.10 0.06 0.06 0.05 0.05 0.04 0.04 0.06 0.08 0.12 0.29 1.12 1.74 0.03 0.00 0.00 0.00 0.00 0.00 0.00 0.00 0.01 0.03 0.10 0.15 0.13 0.10 0.11 0.17 0.11 0.03 0.01 0.02
2.11 2.10 2.04 1.87 1.71 1.64 1.41 1.25 1.22 1.24 0.95 0.65 0.47 0.35 0.24 0.13 0.10 0.09 0.08 0.10 0.13 0.16 0.24 0.42 1.09 1.41 0.91 0.06 0.03 0.00 0.00 0.02 0.01 0.00 0.01 0.06 0.17 0.25 0.34 0.44 0.44 0.23 0.17 0.09 0.02 0.00 0.02
2.05 1.91 1.88 1.90 1.73 1.61 1.54 1.31 1.30 1.34 1.38 1.04 0.81 0.70 0.52 0.31 0.22 0.14 0.14 0.32 0.50 0.52 0.44 0.74 1.77 1.76 0.60 0.11 0.00 0.00 0.00 0.01 0.04 0.05 0.07 0.13 0.33 0.49 0.53 0.60 0.53 0.16 0.10 0.04 0.02 0.00 0.02
1.97 1.75 1.61 1.69 1.60 1.42 1.31 1.20 1.03 1.02 1.13 1.12 0.83 0.64 0.58 0.48 0.37 0.34 0.44 0.70 0.85 0.67 0.53 0.28 0.40 0.18 0.01 0.00 0.02 0.01 0.00 0.11 0.26 0.56 0.30 0.19 0.40 0.61 0.25 0.13 0.14 0.12 0.13 0.11 0.04 0.00 0.05
1.60 1.59 1.41 1.33 1.36 1.27 1.22 1.23 1.12 1.08 1.05 1.12 0.93 0.54 0.42 0.41 0.37 0.33 0.46 0.64 0.47 0.76 0.87 0.11 0.02 0.02 0.00 0.01 0.15 0.25 0.22 0.50 0.69 0.81 0.56 1.05 0.82 0.12 0.07 0.09 0.19 0.24 0.28 0.17 0.06 0.02 0.14
1.94 1.82 1.66 1.46 1.36 1.40 1.24 1.13 1.04 1.03 1.04 1.04 1.03 0.80 0.43 0.34 0.38 0.36 0.31 0.36 0.36 0.94 2.59 0.90 0.03 0.01 0.00 0.07 0.05 0.08 0.20 0.43 0.62 0.74 0.81 0.79 0.50 0.22 0.22 0.29 0.37 0.32 0.23 0.14 0.13 0.12 0.23
1.87 1.76 1.78 1.73 1.65 1.71 1.70 1.53 1.39 1.18 1.20 1.13 1.06 1.06 0.63 0.51 0.43 0.31 0.42 0.39 0.34 1.01 4.42 2.30 0.04 0.04 0.04 0.07 0.10 0.01 0.09 0.20 0.52 0.81 0.86 1.10 0.41 0.31 0.60 0.81 0.92 1.18 0.61 0.42 0.40 0.59 0.56
1.81 1.72 1.64 1.63 1.63 1.85 2.03 1.99 1.74 1.63 1.55 1.42 1.43 1.18 0.84 0.68 0.44 0.47 0.56 0.48 0.71 2.52 6.61 1.87 0.03 0.05 0.03 0.08 0.11 0.04 0.02 0.31 0.39 0.32 0.80 1.33 0.68 0.38 0.51 0.58 0.47 0.63 0.52 0.91 1.35 1.64 1.89
1.61 1.52 1.60 1.65 1.59 1.64 1.88 2.02 1.94 1.61 1.51 1.65 1.53 1.61 1.36 0.74 0.49 0.41 0.44 0.78 2.61 6.08 5.77 0.78 0.03 0.08 0.22 0.21 0.13 0.12 0.12 0.35 0.46 0.64 0.66 0.42 0.19 0.38 0.54 0.55 0.72 0.85 1.05 1.38 1.49 1.69 2.97
1.32 1.33 1.31 1.39 1.44 1.59 2.02 2.03 2.15 1.81 1.80 1.89 1.80 1.94 1.74 0.78 0.60 0.50 0.67 2.32 6.05 6.23 1.43 0.17 0.07 0.12 0.20 0.30 0.39 0.45 0.63 0.75 1.09 1.40 0.87 0.41 0.21 0.07 0.21 0.47 0.54 1.03 1.93 3.26 3.31 3.14 2.92
1.52 1.34 1.25 1.25 1.24 1.27 1.78 2.06 2.11 2.14 1.99 2.23 2.28 2.12 2.03 0.87 0.62 1.01 1.98 4.71 6.67 1.97 0.24 0.06 0.04 0.07 0.24 0.42 0.52 0.57 0.83 1.09 1.21 1.44 1.66 1.44 0.94 0.34 0.37 0.56 0.65 0.58 1.34 3.14 3.62 1.97 1.20
1.65 1.55 1.40 1.29 1.18 1.21 1.44 2.04 2.14 2.34 2.35 2.57 3.13 2.78 2.46 1.09 0.62 1.81 4.36 6.30 2.97 0.65 0.37 0.24 0.11 0.45 0.68 0.76 0.97 0.76 0.68 0.97 1.58 2.44 3.66 3.58 2.70 1.07 0.63 0.53 0.71 0.87 1.18 1.28 2.62 2.08 2.93
1.80 1.81 1.62 1.53 1.25 1.28 1.44 2.13 2.26 2.53 2.56 2.95 3.74 3.74 2.46 1.00 1.13 2.94 5.97 4.31 1.07 0.40 0.75 0.91 1.27 1.22 1.20 0.86 1.30 1.58 1.60 1.77 1.73 2.04 2.67 3.83 3.64 1.59 1.33 1.25 1.19 1.32 1.50 2.62 4.33 6.15 4.75
2.00 1.98 1.66 1.60 1.41 1.31 1.44 2.23 2.59 2.49 2.86 3.26 3.88 4.52 2.10 1.53 2.98 5.18 5.39 2.08 0.50 0.13 0.28 1.13 1.71 1.65 1.13 1.06 1.33 1.50 1.65 1.24 1.09 1.42 1.67 2.31 3.34 1.53 0.97 1.65 2.24 2.34 2.83 3.57 4.99 5.41 5.09
2.22 2.20 1.87 1.76 1.65 1.45 1.52 2.18 2.83 2.91 3.71 4.64 5.00 4.36 1.97 2.70 4.80 4.79 2.60 0.97 0.47 0.25 0.29 0.81 1.13 1.27 1.33 1.34 1.49 2.07 1.60 1.20 0.65 0.81 1.13 1.23 2.45 1.36 0.88 0.62 0.84 1.41 2.60 4.03 5.77 5.27 4.78
2.53 2.40 2.03 1.95 1.91 1.61 1.55 2.01 3.04 3.37 4.30 5.32 5.95 3.67 2.97 3.76 4.20 2.29 1.04 0.57 0.54 0.51 0.45 0.96 1.11 1.35 1.51 1.59 1.82 1.36 1.49 0.92 0.70 0.95 1.39 1.43 2.28 1.91 1.16 1.06 1.27 1.42 1.62 2.38 3.68 4.72 4.97
2.56 2.53 2.21 2.11 2.25 1.96 1.70 1.96 3.14 3.45 4.37 5.94 6.60 4.84 4.76 5.60 2.60 1.01 1.02 0.96 0.86 0.56 0.57 0.77 1.18 1.30 1.32 1.08 1.00 1.19 0.90 0.51 0.33 0.45 0.76 1.41 2.21 1.75 1.59 1.49 1.78 1.96 1.60 1.64 2.70 4.36 3.45
2.83 2.67 2.36 2.17 2.46 2.21 1.95 1.96 3.09 3.83 4.96 7.28 8.17 4.30 2.35 3.15 2.36 1.18 1.11 1.37 0.93 0.79 0.73 0.64 1.09 1.04 1.23 1.42 0.83 0.66 0.66 0.47 0.30 0.30 0.41 1.04 2.08 1.22 0.99 1.00 0.83 1.14 1.45 1.62 1.92 2.05 2.64
2.86 2.75 2.56 2.29 2.52 2.37 2.14 2.19 2.99 4.18 6.14 9.20 7.73 2.61 1.44 0.95 0.66 1.20 2.02 1.90 1.01 0.72 1.09 0.84 0.79 0.54 0.83 1.23 1.12 0.94 0.85 0.90 0.78 0.48 0.55 0.72 1.41 1.18 0.99 0.76 0.59 0.87 1.10 0.81 0.97 1.52 1.73
3.05 2.98 2.88 2.66 2.74 2.44 2.57 2.55 3.11 4.30 7.08 10.16 5.88 1.99 2.35 1.53 0.82 1.36 1.31 1.05 0.87 0.95 0.91 0.75 0.91 1.17 1.00 0.71 0.70 0.73 0.65 0.75 0.80 0.86 0.89 0.86 1.09 1.19 0.96 0.43 0.66 1.53 1.34 0.74 0.57 0.62 0.68
3.04 3.12 2.85 3.22 3.01 2.65 2.59 2.90 3.60 4.44 5.59 5.60 3.67 1.93 3.26 2.63 1.43 1.01 0.66 0.74 0.76 0.90 1.16 0.62 0.69 0.89 0.65 0.50 0.59 0.65 0.59 0.43 0.46 0.45 0.82 1.22 0.96 1.33 1.04 0.84 1.87 1.32 0.52 0.42 0.31 0.33 0.43
2.79 3.10 2.72 2.99 3.38 2.90 2.54 2.79 3.91 4.44 3.97 3.72 2.92 2.68 3.40 2.47 0.90 0.85 0.83 0.75 0.63 0.72 0.90 0.66 0.59 0.67 0.74 0.87 1.33 1.12 0.83 0.70 0.31 0.30 0.33 0.53 1.11 1.69 1.41 0.93 0.80 0.47 0.25 0.32 0.39 0.38 0.26
2.86 3.02 2.58 2.73 3.17 3.23 2.77 2.83 3.70 4.23 3.73 3.75 2.82 3.03 4.21 3.53 1.35 0.56 1.00 1.11 1.00 0.92 0.99 0.69 0.48 0.36 0.73 1.19 1.64 1.38 0.82 0.66 0.48 0.43 0.37 0.65 1.09 2.22 1.93 1.43 0.87 0.52 0.14 0.12 0.38 0.83 0.26
3.37 3.06 2.62 2.55 2.73 3.01 3.09 3.09 3.15 3.72 3.94 4.06 3.28 2.61 4.87 4.42 1.03 0.58 0.76 0.88 0.98 1.00 1.20 0.93 0.84 0.89 1.09 1.61 1.67 1.12 0.85 0.61 0.83 0.66 0.71 1.06 1.72 2.46 2.31 2.47 1.18 0.36 0.16 0.17 0.97 1.24 0.37
3.36 3.31 2.44 2.33 2.46 2.38 2.53 3.20 3.44 3.35 3.88 4.85 3.81 2.31 3.44 3.95 1.34 0.65 0.57 0.63 0.62 0.82 1.27 1.43 1.64 1.86 1.97 2.09 1.77 1.31 1.09 1.00 0.89 0.76 0.78 1.13 1.56 1.67 1.94 2.48 1.86 0.56 0.57 0.90 1.12 0.50 0.23
3.00 3.32 2.45 2.30 2.40 2.26 2.06 2.40 3.47 3.59 3.76 4.75 4.64 2.95 3.15 3.63 2.09 0.88 0.45 0.40 0.44 0.58 0.95 1.21 1.56 1.49 2.18 2.45 1.91 1.29 1.06 1.09 0.89 1.20 0.68 1.11 0.93 1.16 1.29 1.78 1.42 1.10 1.03 0.64 0.39 0.48 0.39

GFSGBSN_prec_precacc_279.txt.gz
Total_Precipitation_Accumulation
0.66 0.83 0.84 0.64 0.59 0.60 0.51 0.43 0.32 0.21 0.13 0.09 0.08 0.07 0.06 0.06 0.06 0.04 0.03 0.02 0.03 0.02 0.02 0.02 0.03 0.03 0.17 0.32 0.09 0.00 0.00 0.00 0.00 0.00 0.00 0.00 0.00 0.00 0.00 0.00 0.00 0.00 0.00 0.00 0.00 0.03 0.02
0.84 0.81 0.99 0.90 0.73 0.65 0.68 0.56 0.40 0.26 0.17 0.11 0.09 0.08 0.06 0.06 0.06 0.05 0.05 0.04 0.04 0.04 0.04 0.03 0.05 0.18 0.57 0.61 0.02 0.00 0.00 0.00 0.00 0.00 0.00 0.00 0.01 0.01 0.02 0.00 0.00 0.00 0.00 0.00 0.00 0.02 0.02
1.20 0.95 0.79 0.85 0.73 0.56 0.56 0.64 0.57 0.47 0.37 0.26 0.16 0.11 0.07 0.06 0.06 0.05 0.04 0.05 0.05 0.05 0.05 0.06 0.10 0.41 1.21 0.29 0.00 0.00 0.00 0.00 0.00 0.00 0.01 0.01 0.02 0.05 0.09 0.05 0.01 0.02 0.03 0.01 0.00 0.01 0.02
1.80 1.55 1.39 1.37 1.34 1.07 0.88 0.82 0.82 0.64 0.46 0.29 0.18 0.11 0.10 0.06 0.06 0.05 0.05 0.04 0.04 0.06 0.08 0.12 0.29 1.12 1.74 0.03 0.00 0.00 0.00 0.00 0.00 0.00 0.00 0.01 0.03 0.10 0.15 0.13 0.10 0.11 0.17 0.11 0.03 0.01 0.02
2.11 2.10 2.04 1.87 1.71 1.64 1.41 1.25 1.22 1.24 0.98 0.69 0.49 0.35 0.24 0.13 0.10 0.09 0.08 0.10 0.13 0.16 0.24 0.42 1.09 1.41 0.91 0.06 0.03 0.00 0.00 0.02 0.01 0.00 0.01 0.06 0.17 0.25 0.34 0.44 0.44 0.23 0.17 0.09 0.02 0.00 0.02
2.06 1.91 1.89 1.91 1.73 1.61 1.54 1.31 1.30 1.34 1.40 1.12 0.90 0.72 0.52 0.31 0.22 0.14 0.14 0.32 0.50 0.52 0.44 0.74 1.77 1.76 0.60 0.11 0.00 0.00 0.00 0.01 0.04 0.05 0.07 0.13 0.33 0.49 0.53 0.60 0.53 0.16 0.10 0.04 0.02 0.00 0.02
1.97 1.77 1.63 1.70 1.61 1.42 1.31 1.20 1.03 1.02 1.14 1.16 0.96 0.75 0.60 0.48 0.37 0.34 0.44 0.70 0.85 0.67 0.53 0.28 0.40 0.18 0.01 0.00 0.02 0.01 0.00 0.11 0.26 0.56 0.30 0.19 0.40 0.61 0.25 0.13 0.14 0.12 0.13 0.11 0.04 0.00 0.05
1.60 1.60 1.43 1.36 1.38 1.27 1.22 1.23 1.12 1.08 1.05 1.17 1.02 0.73 0.48 0.42 0.37 0.33 0.46 0.64 0.47 0.76 0.87 0.11 0.02 0.02 0.00 0.01 0.15 0.25 0.22 0.50 0.69 0.81 0.56 1.05 0.82 0.12 0.07 0.09 0.19 0.24 0.28 0.17 0.06 0.02 0.14
1.94 1.82 1.66 1.47 1.37 1.41 1.24 1.13 1.04 1.03 1.04 1.07 1.19 1.07 0.58 0.35 0.38 0.36 0.31 0.36 0.36 0.94 2.59 0.90 0.03 0.01 0.00 0.07 0.05 0.08 0.20 0.43 0.62 0.74 0.81 0.79 0.50 0.22 0.22 0.29 0.37 0.32 0.23 0.14 0.13 0.12 0.23
1.88 1.76 1.79 1.73 1.67 1.72 1.70 1.53 1.40 1.18 1.20 1.14 1.21 1.41 1.09 0.61 0.44 0.31 0.42 0.39 0.34 1.01 4.42 2.30 0.04 0.04 0.04 0.07 0.10 0.01 0.09 0.20 0.52 0.81 0.86 1.10 0.41 0.31 0.60 0.81 0.92 1.18 0.61 0.42 0.40 0.59 0.56
1.82 1.72 1.65 1.64 1.64 1.86 2.04 1.99 1.74 1.63 1.55 1.42 1.49 1.50 1.61 1.12 0.45 0.47 0.56 0.48 0.71 2.52 6.61 1.87 0.03 0.05 0.03 0.08 0.11 0.04 0.02 0.31 0.39 0.32 0.80 1.33 0.68 0.38 0.51 0.58 0.47 0.63 0.52 0.91 1.35 1.64 1.89
1.63 1.53 1.60 1.66 1.60 1.65 1.88 2.02 1.95 1.61 1.51 1.65 1.56 1.81 2.01 1.54 0.56 0.41 0.44 0.78 2.61 6.08 5.77 0.78 0.03 0.08 0.22 0.21 0.13 0.12 0.12 0.35 0.46 0.64 0.66 0.42 0.19 0.38 0.54 0.55 0.72 0.85 1.05 1.38 1.49 1.69 2.97
1.35 1.34 1.31 1.40 1.45 1.60 2.03 2.04 2.15 1.82 1.80 1.89 1.81 2.06 2.22 1.53 0.76 0.51 0.67 2.32 6.05 6.23 1.43 0.17 0.07 0.12 0.20 0.30 0.39 0.45 0.63 0.75 1.09 1.40 0.87 0.41 0.21 0.07 0.21 0.47 0.54 1.03 1.93 3.26 3.31 3.14 2.92
1.53 1.35 1.25 1.26 1.25 1.28 1.79 2.07 2.11 2.14 2.00 2.23 2.28 2.19 2.43 1.34 0.82 1.02 1.98 4.71 6.67 1.97 0.24 0.06 0.04 0.07 0.24 0.42 0.52 0.57 0.83 1.09 1.21 1.44 1.66 1.44 0.94 0.34 0.37 0.56 0.65 0.58 1.34 3.14 3.62 1.97 1.20
1.65 1.55 1.41 1.30 1.19 1.22 1.45 2.05 2.15 2.34 2.35 2.58 3.13 2.80 2.69 1.55 0.97 1.86 4.37 6.30 2.97 0.65 0.37 0.24 0.11 0.45 0.68 0.76 0.97 0.76 0.68 0.97 1.58 2.44 3.66 3.58 2.70 1.07 0.63 0.53 0.71 0.87 1.18 1.28 2.62 2.08 2.93
1.81 1.82 1.63 1.54 1.26 1.29 1.46 2.14 2.28 2.54 2.57 2.95 3.74 3.75 2.54 1.46 1.63 3.04 5.98 4.31 1.07 0.40 0.75 0.91 1.27 1.22 1.20 0.86 1.30 1.58 1.60 1.77 1.73 2.04 2.67 3.83 3.64 1.59 1.33 1.25 1.19 1.32 1.50 2.62 4.33 6.15 4.75
2.01 1.98 1.66 1.60 1.42 1.33 1.45 2.24 2.60 2.50 2.87 3.26 3.88 4.52 2.11 1.92 3.69 5.45 5.43 2.08 0.50 0.13 0.28 1.13 1.71 1.65 1.13 1.06 1.33 1.50 1.65 1.24 1.09 1.42 1.67 2.31 3.34 1.53 0.97 1.65 2.24 2.34 2.83 3.57 4.99 5.41 5.09
2.22 2.21 1.87 1.76 1.65 1.46 1.53 2.19 2.84 2.93 3.72 4.64 5.01 4.36 1.98 3.19 5.82 5.23 2.64 0.97 0.47 0.25 0.29 0.81 1.13 1.27 1.33 1.34 1.49 2.07 1.60 1.20 0.65 0.81 1.13 1.23 2.45 1.36 0.88 0.62 0.84 1.41 2.60 4.03 5.77 5.27 4.78
2.53 2.41 2.03 1.95 1.91 1.61 1.56 2.03 3.06 3.40 4.31 5.32 5.96 3.67 3.00 4.34 5.13 2.57 1.08 0.58 0.54 0.51 0.45 0.96 1.11 1.35 1.51 1.59 1.82 1.36 1.49 0.92 0.70 0.95 1.39 1.43 2.28 1.91 1.16 1.06 1.27 1.42 1.62 2.38 3.68 4.72 4.97
2.57 2.53 2.22 2.11 2.25 1.96 1.70 1.98 3.17 3.48 4.37 5.94 6.60 4.85 4.78 5.94 3.13 1.11 1.06 0.97 0.86 0.56 0.57 0.77 1.18 1.30 1.32 1.08 1.00 1.19 0.90 0.51 0.33 0.45 0.76 1.41 2.21 1.75 1.59 1.49 1.78 1.96 1.60 1.64 2.70 4.36 3.45
2.85 2.68 2.37 2.17 2.46 2.21 1.95 1.98 3.12 3.85 4.96 7.28 8.17 4.30 2.37 3.28 2.61 1.32 1.17 1.38 0.93 0.79 0.73 0.64 1.09 1.04 1.23 1.42 0.83 0.66 0.66 0.47 0.30 0.30 0.41 1.04 2.08 1.22 0.99 1.00 0.83 1.14 1.45 1.62 1.92 2.05 2.64
2.87 2.77 2.56 2.29 2.53 2.37 2.15 2.20 3.01 4.19 6.14 9.20 7.73 2.61 1.45 0.97 0.71 1.28 2.19 1.98 1.01 0.72 1.09 0.84 0.79 0.54 0.83 1.23 1.12 0.94 0.85 0.90 0.78 0.48 0.55 0.72 1.41 1.18 0.99 0.76 0.59 0.87 1.10 0.81 0.97 1.52 1.73
3.07 3.00 2.90 2.66 2.75 2.45 2.58 2.56 3.13 4.31 7.08 10.16 5.88 1.99 2.35 1.53 0.83 1.44 1.44 1.09 0.87 0.95 0.91 0.75 0.91 1.17 1.00 0.71 0.70 0.73 0.65 0.75 0.80 0.86 0.89 0.86 1.09 1.19 0.96 0.43 0.66 1.53 1.34 0.74 0.57 0.62 0.68
3.06 3.14 2.87 3.23 3.02 2.65 2.59 2.90 3.61 4.45 5.59 5.60 3.67 1.93 3.26 2.63 1.43 1.03 0.68 0.75 0.76 0.90 1.16 0.62 0.69 0.89 0.65 0.50 0.59 0.65 0.59 0.43 0.46 0.45 0.82 1.22 0.96 1.33 1.04 0.84 1.87 1.32 0.52 0.42 0.31 0.33 0.43
2.81 3.12 2.74 3.01 3.39 2.91 2.54 2.80 3.93 4.45 3.97 3.72 2.92 2.68 3.40 2.47 0.90 0.86 0.84 0.75 0.63 0.72 0.90 0.66 0.59 0.67 0.74 0.87 1.33 1.12 0.83 0.70 0.31 0.30 0.33 0.53 1.11 1.69 1.41 0.93 0.80 0.47 0.25 0.32 0.39 0.38 0.26
2.86 3.03 2.60 2.74 3.17 3.23 2.77 2.83 3.72 4.24 3.74 3.75 2.82 3.03 4.21 3.53 1.36 0.56 1.01 1.11 1.02 0.96 1.00 0.69 0.48 0.36 0.73 1.19 1.64 1.38 0.82 0.66 0.48 0.43 0.37 0.65 1.09 2.22 1.93 1.43 0.87 0.52 0.14 0.12 0.38 0.83 0.26
3.38 3.06 2.63 2.56 2.74 3.02 3.09 3.10 3.17 3.73 3.95 4.06 3.28 2.61 4.87 4.42 1.03 0.58 0.77 0.88 0.99 1.01 1.21 0.93 0.84 0.89 1.09 1.61 1.67 1.12 0.85 0.61 0.83 0.66 0.71 1.06 1.72 2.46 2.31 2.47 1.18 0.36 0.16 0.17 0.97 1.24 0.37
3.36 3.31 2.44 2.34 2.47 2.38 2.54 3.21 3.45 3.36 3.89 4.85 3.81 2.31 3.44 3.95 1.34 0.65 0.58 0.63 0.62 0.82 1.27 1.43 1.64 1.86 1.97 2.09 1.77 1.31 1.09 1.00 0.89 0.76 0.78 1.13 1.56 1.67 1.94 2.48 1.86 0.56 0.57 0.90 1.12 0.50 0.23
3.00 3.33 2.45 2.30 2.40 2.26 2.06 2.41 3.48 3.59 3.76 4.75 4.64 2.95 3.15 3.63 2.11 0.89 0.45 0.40 0.44 0.58 0.95 1.21 1.56 1.49 2.18 2.45 1.91 1.29 1.06 1.09 0.89 1.20 0.68 1.11 0.93 1.16 1.29 1.78 1.42 1.10 1.03 0.64 0.39 0.48 0.39

GFSGBSN_prec_precacc_285.txt.gz
Total_Precipitation_Accumulation
0.66 0.83 0.84 0.64 0.59 0.60 0.51 0.43 0.33 0.22 0.14 0.11 0.09 0.07 0.06 0.06 0.06 0.04 0.03 0.02 0.03 0.02 0.02 0.02 0.03 0.03 0.17 0.32 0.09 0.00 0.00 0.00 0.00 0.00 0.00 0.00 0.00 0.00 0.00 0.00 0.00 0.00 0.00 0.00 0.00 0.03 0.02
0.84 0.81 0.99 0.90 0.73 0.65 0.68 0.56 0.40 0.26 0.18 0.12 0.10 0.08 0.06 0.06 0.06 0.05 0.05 0.04 0.04 0.04 0.04 0.03 0.05 0.18 0.57 0.61 0.02 0.00 0.00 0.00 0.00 0.00 0.00 0.00 0.01 0.01 0.02 0.00 0.00 0.00 0.00 0.00 0.00 0.02 0.02
1.21 0.96 0.79 0.85 0.73 0.56 0.56 0.64 0.57 0.47 0.37 0.26 0.17 0.11 0.07 0.07 0.06 0.05 0.04 0.05 0.05 0.05 0.05 0.06 0.10 0.41 1.21 0.29 0.00 0.00 0.00 0.00 0.00 0.00 0.01 0.01 0.02 0.05 0.09 0.05 0.01 0.02 0.03 0.01 0.00 0.01 0.02
1.81 1.55 1.39 1.37 1.34 1.07 0.88 0.82 0.82 0.64 0.46 0.30 0.21 0.12 0.10 0.07 0.06 0.05 0.05 0.04 0.04 0.06 0.08 0.12 0.29 1.12 1.74 0.03 0.00 0.00 0.00 0.00 0.00 0.00 0.00 0.01 0.03 0.10 0.15 0.13 0.10 0.11 0.17 0.11 0.03 0.01 0.02
2.13 2.11 2.05 1.87 1.71 1.64 1.41 1.25 1.22 1.24 0.98 0.69 0.51 0.38 0.25 0.14 0.10 0.09 0.08 0.10 0.13 0.16 0.24 0.42 1.09 1.41 0.91 0.06 0.03 0.00 0.00 0.02 0.01 0.00 0.01 0.06 0.17 0.25 0.34 0.44 0.44 0.23 0.17 0.09 0.02 0.00 0.02
2.07 1.93 1.90 1.91 1.73 1.61 1.54 1.31 1.30 1.34 1.40 1.12 0.91 0.74 0.55 0.33 0.23 0.15 0.14 0.32 0.50 0.52 0.44 0.74 1.77 1.76 0.60 0.11 0.00 0.00 0.00 0.01 0.04 0.05 0.07 0.13 0.33 0.49 0.53 0.60 0.53 0.16 0.10 0.04 0.02 0.00 0.02
1.98 1.77 1.64 1.71 1.61 1.43 1.31 1.20 1.03 1.03 1.14 1.16 0.97 0.77 0.62 0.51 0.41 0.37 0.44 0.70 0.85 0.67 0.53 0.28 0.40 0.18 0.01 0.00 0.02 0.01 0.00 0.11 0.26 0.56 0.30 0.19 0.40 0.61 0.25 0.13 0.14 0.12 0.13 0.11 0.04 0.00 0.05
1.61 1.60 1.44 1.36 1.38 1.28 1.22 1.23 1.12 1.08 1.05 1.18 1.02 0.76 0.55 0.46 0.40 0.39 0.47 0.64 0.47 0.76 0.87 0.11 0.02 0.02 0.00 0.01 0.15 0.25 0.22 0.50 0.69 0.81 0.56 1.05 0.82 0.12 0.07 0.09 0.19 0.24 0.28 0.17 0.06 0.02 0.14
1.95 1.83 1.67 1.47 1.37 1.41 1.25 1.13 1.05 1.03 1.04 1.08 1.19 1.10 0.71 0.50 0.45 0.41 0.31 0.36 0.36 0.94 2.59 0.90 0.03 0.01 0.00 0.07 0.05 0.08 0.20 0.43 0.62 0.74 0.81 0.79 0.50 0.22 0.22 0.29 0.37 0.32 0.23 0.14 0.13 0.12 0.23
1.89 1.77 1.80 1.75 1.67 1.73 1.72 1.54 1.40 1.18 1.21 1.14 1.21 1.44 1.22 0.90 0.70 0.35 0.44 0.39 0.34 1.01 4.42 2.30 0.04 0.04 0.04 0.07 0.10 0.01 0.09 0.20 0.52 0.81 0.86 1.10 0.41 0.31 0.60 0.81 0.92 1.18 0.61 0.42 0.40 0.59 0.56
1.83 1.74 1.66 1.65 1.65 1.87 2.04 2.00 1.74 1.64 1.56 1.43 1.50 1.51 1.70 1.54 0.77 0.62 0.61 0.49 0.71 2.52 6.61 1.87 0.03 0.05 0.03 0.08 0.11 0.04 0.02 0.31 0.39 0.32 0.80 1.33 0.68 0.38 0.51 0.58 0.47 0.63 0.52 0.91 1.35 1.64 1.89
1.64 1.56 1.64 1.69 1.62 1.66 1.89 2.03 1.95 1.62 1.52 1.66 1.56 1.83 2.10 1.88 0.96 0.59 0.61 0.78 2.61 6.08 5.77 0.78 0.03 0.08 0.22 0.21 0.13 0.12 0.12 0.35 0.46 0.64 0.66 0.42 0.19 0.38 0.54 0.55 0.72 0.85 1.05 1.38 1.49 1.69 2.97
1.38 1.38 1.34 1.42 1.49 1.62 2.05 2.06 2.16 1.82 1.81 1.90 1.82 2.07 2.36 1.88 1.12 0.79 1.03 2.34 6.05 6.23 1.43 0.17 0.07 0.12 0.20 0.30 0.39 0.45 0.63 0.75 1.09 1.40 0.87 0.41 0.21 0.07 0.21 0.47 0.54 1.03 1.93 3.26 3.31 3.14 2.92
1.57 1.41 1.29 1.28 1.28 1.32 1.83 2.09 2.13 2.15 2.01 2.24 2.29 2.19 2.52 1.62 1.30 1.67 2.55 4.80 6.68 1.97 0.24 0.06 0.04 0.07 0.24 0.42 0.52 0.57 0.83 1.09 1.21 1.44 1.66 1.44 0.94 0.34 0.37 0.56 0.65 0.58 1.34 3.14 3.62 1.97 1.20
1.68 1.59 1.46 1.35 1.22 1.27 1.49 2.08 2.18 2.36 2.37 2.59 3.14 2.80 2.72 1.79 1.72 2.74 5.13 6.67 2.97 0.65 0.37 0.24 0.11 0.45 0.68 0.76 0.97 0.76 0.68 0.97 1.58 2.44 3.66 3.58 2.70 1.07 0.63 0.53 0.71 0.87 1.18 1.28 2.62 2.08 2.93
1.85 1.86 1.67 1.59 1.30 1.33 1.50 2.17 2.29 2.57 2.60 2.98 3.74 3.75 2.55 1.66 2.42 4.09 6.96 4.59 1.07 0.40 0.75 0.91 1.27 1.22 1.20 0.86 1.30 1.58 1.60 1.77 1.73 2.04 2.67 3.83 3.64 1.59 1.33 1.25 1.19 1.32 1.50 2.62 4.33 6.15 4.75
2.05 2.02 1.70 1.65 1.48 1.38 1.47 2.25 2.62 2.54 2.93 3.31 3.88 4.52 2.11 2.14 4.61 6.73 6.36 2.22 0.50 0.13 0.28 1.13 1.71 1.65 1.13 1.06 1.33 1.50 1.65 1.24 1.09 1.42 1.67 2.31 3.34 1.53 0.97 1.65 2.24 2.34 2.83 3.57 4.99 5.41 5.09
2.24 2.23 1.89 1.77 1.66 1.47 1.54 2.20 2.86 2.98 3.83 4.67 5.01 4.36 1.99 3.51 6.89 6.42 3.16 1.03 0.47 0.25 0.29 0.81 1.13 1.27 1.33 1.34 1.49 2.07 1.60 1.20 0.65 0.81 1.13 1.23 2.45 1.36 0.88 0.62 0.84 1.41 2.60 4.03 5.77 5.27 4.79
2.55 2.42 2.05 1.96 1.92 1.62 1.56 2.04 3.10 3.47 4.38 5.33 5.96 3.67 3.01 4.66 5.93 3.21 1.34 0.63 0.54 0.51 0.45 0.96 1.11 1.35 1.51 1.59 1.82 1.36 1.49 0.92 0.70 0.95 1.39 1.43 2.28 1.91 1.16 1.06 1.27 1.42 1.62 2.38 3.68 4.72 4.97
2.58 2.55 2.23 2.13 2.26 1.97 1.71 1.99 3.23 3.56 4.45 5.96 6.60 4.85 4.78 6.07 3.52 1.37 1.22 1.13 0.89 0.56 0.57 0.77 1.18 1.30 1.32 1.08 1.00 1.19 0.90 0.51 0.33 0.45 0.76 1.41 2.21 1.75 1.59 1.49 1.78 1.96 1.60 1.64 2.70 4.36 3.45
2.86 2.69 2.38 2.18 2.47 2.22 1.95 1.99 3.14 3.95 5.05 7.33 8.18 4.30 2.37 3.33 2.75 1.53 1.41 1.58 0.98 0.79 0.73 0.64 1.09 1.04 1.23 1.42 0.83 0.66 0.66 0.47 0.30 0.30 0.41 1.04 2.08 1.22 0.99 1.00 0.83 1.14 1.45 1.62 1.92 2.05 2.64
2.89 2.78 2.57 2.30 2.54 2.38 2.16 2.21 3.03 4.25 6.26 9.30 7.74 2.61 1.45 0.97 0.73 1.37 2.46 2.27 1.09 0.73 1.09 0.84 0.79 0.54 0.83 1.23 1.12 0.94 0.85 0.90 0.78 0.48 0.55 0.72 1.41 1.18 0.99 0.76 0.59 0.87 1.10 0.81 0.97 1.52 1.73
3.09 3.01 2.91 2.67 2.76 2.46 2.59 2.57 3.15 4.36 7.23 10.38 5.91 1.99 2.35 1.53 0.86 1.50 1.58 1.23 0.94 0.97 0.91 0.75 0.91 1.17 1.00 0.71 0.70 0.73 0.65 0.75 0.80 0.86 0.89 0.86 1.09 1.19 0.96 0.43 0.66 1.53 1.34 0.74 0.57 0.62 0.68
3.08 3.16 2.89 3.24 3.03 2.67 2.60 2.92 3.63 4.49 5.69 5.70 3.68 1.93 3.26 2.63 1.46 1.07 0.71 0.78 0.80 0.95 1.17 0.62 0.69 0.89 0.65 0.50 0.59 0.65 0.59 0.43 0.46 0.45 0.82 1.22 0.96 1.33 1.04 0.84 1.87 1.32 0.52 0.42 0.31 0.33 0.43
2.83 3.14 2.77 3.03 3.41 2.93 2.56 2.81 3.95 4.49 4.07 3.73 2.92 2.68 3.40 2.47 0.90 0.88 0.87 0.79 0.69 0.84 0.96 0.67 0.59 0.67 0.74 0.87 1.33 1.12 0.83 0.70 0.31 0.30 0.33 0.53 1.11 1.69 1.41 0.93 0.80 0.47 0.25 0.32 0.39 0.38 0.26
2.91 3.07 2.63 2.77 3.20 3.26 2.79 2.85 3.74 4.28 3.82 3.77 2.82 3.03 4.21 3.53 1.36 0.58 1.09 1.21 1.11 1.14 1.16 0.73 0.48 0.36 0.73 1.19 1.64 1.38 0.82 0.66 0.48 0.43 0.37 0.65 1.09 2.22 1.93 1.43 0.87 0.52 0.14 0.12 0.38 0.83 0.26
3.43 3.12 2.68 2.60 2.76 3.04 3.11 3.11 3.18 3.76 4.01 4.10 3.28 2.61 4.87 4.42 1.03 0.59 0.90 1.03 1.05 1.06 1.28 0.95 0.84 0.89 1.09 1.61 1.67 1.12 0.85 0.61 0.83 0.66 0.71 1.06 1.72 2.46 2.31 2.47 1.18 0.36 0.16 0.17 0.97 1.24 0.37
3.41 3.37 2.50 2.40 2.50 2.41 2.56 3.23 3.46 3.38 3.94 4.91 3.81 2.31 3.44 3.95 1.34 0.65 0.60 0.79 0.69 0.84 1.30 1.45 1.65 1.86 1.97 2.09 1.77 1.31 1.09 1.00 0.89 0.76 0.78 1.13 1.56 1.67 1.94 2.48 1.86 0.56 0.57 0.90 1.12 0.50 0.23
3.03 3.37 2.50 2.35 2.45 2.29 2.08 2.42 3.50 3.62 3.80 4.82 4.65 2.95 3.15 3.63 2.11 0.89 0.45 0.42 0.53 0.60 0.97 1.22 1.58 1.49 2.18 2.45 1.91 1.29 1.06 1.09 0.89 1.20 0.68 1.11 0.93 1.16 1.29 1.78 1.42 1.10 1.03 0.64 0.39 0.48 0.39

GFSGBSN_prec_precacc_291.txt.gz
Total_Precipitation_Accumulation
0.66 0.83 0.84 0.64 0.59 0.60 0.51 0.43 0.33 0.22 0.14 0.11 0.09 0.07 0.06 0.06 0.06 0.04 0.03 0.02 0.03 0.02 0.02 0.02 0.03 0.03 0.17 0.32 0.09 0.00 0.00 0.00 0.00 0.00 0.00 0.00 0.00 0.00 0.00 0.00 0.00 0.00 0.00 0.00 0.00 0.03 0.02
0.85 0.81 0.99 0.90 0.73 0.65 0.68 0.56 0.40 0.26 0.18 0.12 0.10 0.08 0.06 0.06 0.06 0.05 0.05 0.04 0.04 0.04 0.04 0.03 0.05 0.18 0.57 0.61 0.02 0.00 0.00 0.00 0.00 0.00 0.00 0.00 0.01 0.01 0.02 0.00 0.00 0.00 0.00 0.00 0.00 0.02 0.02
1.21 0.96 0.80 0.85 0.73 0.56 0.56 0.64 0.57 0.47 0.37 0.26 0.17 0.11 0.07 0.07 0.06 0.05 0.04 0.05 0.05 0.05 0.05 0.06 0.10 0.41 1.21 0.29 0.00 0.00 0.00 0.00 0.00 0.00 0.01 0.01 0.02 0.05 0.09 0.05 0.01 0.02 0.03 0.01 0.00 0.01 0.02
1.81 1.55 1.40 1.38 1.34 1.07 0.88 0.82 0.82 0.64 0.46 0.30 0.21 0.12 0.10 0.07 0.06 0.05 0.05 0.04 0.04 0.06 0.08 0.12 0.29 1.12 1.74 0.03 0.00 0.00 0.00 0.00 0.00 0.00 0.00 0.01 0.03 0.10 0.15 0.13 0.10 0.11 0.17 0.11 0.03 0.01 0.02
2.13 2.12 2.05 1.87 1.71 1.64 1.41 1.25 1.22 1.24 0.98 0.69 0.51 0.38 0.25 0.14 0.10 0.09 0.08 0.10 0.13 0.16 0.24 0.42 1.09 1.41 0.91 0.06 0.03 0.00 0.00 0.02 0.01 0.00 0.01 0.06 0.17 0.25 0.34 0.44 0.44 0.23 0.17 0.09 0.02 0.00 0.02
2.07 1.93 1.90 1.92 1.73 1.61 1.54 1.31 1.30 1.34 1.40 1.12 0.91 0.74 0.55 0.33 0.23 0.15 0.14 0.32 0.50 0.52 0.44 0.74 1.77 1.76 0.60 0.11 0.00 0.00 0.00 0.01 0.04 0.05 0.07 0.13 0.33 0.49 0.53 0.60 0.53 0.16 0.10 0.04 0.02 0.00 0.02
1.98 1.77 1.64 1.71 1.61 1.43 1.31 1.20 1.03 1.03 1.14 1.16 0.97 0.77 0.62 0.51 0.41 0.37 0.45 0.70 0.85 0.67 0.53 0.28 0.40 0.18 0.01 0.00 0.02 0.01 0.00 0.11 0.26 0.56 0.30 0.19 0.40 0.61 0.25 0.13 0.14 0.12 0.13 0.11 0.04 0.00 0.05
1.61 1.60 1.44 1.36 1.38 1.28 1.22 1.23 1.12 1.08 1.05 1.18 1.02 0.76 0.55 0.46 0.40 0.41 0.49 0.64 0.47 0.76 0.87 0.11 0.02 0.02 0.00 0.01 0.15 0.25 0.22 0.50 0.69 0.81 0.56 1.05 0.82 0.12 0.07 0.09 0.19 0.24 0.28 0.17 0.06 0.02 0.14
1.95 1.83 1.67 1.47 1.38 1.41 1.25 1.13 1.05 1.03 1.04 1.08 1.19 1.10 0.71 0.50 0.45 0.42 0.34 0.38 0.37 0.94 2.59 0.90 0.03 0.01 0.00 0.07 0.05 0.08 0.20 0.43 0.62 0.74 0.81 0.79 0.50 0.22 0.22 0.29 0.37 0.32 0.23 0.14 0.13 0.12 0.23
1.89 1.77 1.80 1.75 1.67 1.73 1.72 1.54 1.40 1.18 1.21 1.14 1.21 1.44 1.22 0.90 0.70 0.35 0.45 0.47 0.38 1.02 4.43 2.30 0.04 0.04 0.04 0.07 0.10 0.01 0.09 0.20 0.52 0.81 0.86 1.10 0.41 0.31 0.60 0.81 0.92 1.18 0.61 0.42 0.40 0.59 0.56
1.84 1.74 1.66 1.65 1.65 1.87 2.04 2.00 1.74 1.64 1.56 1.43 1.50 1.51 1.70 1.54 0.77 0.63 0.64 0.58 0.90 2.57 6.64 1.87 0.03 0.05 0.03 0.08 0.11 0.04 0.02 0.31 0.39 0.32 0.80 1.33 0.68 0.38 0.51 0.58 0.47 0.63 0.52 0.91 1.35 1.64 1.89
1.65 1.56 1.64 1.69 1.62 1.66 1.89 2.03 1.95 1.62 1.52 1.66 1.56 1.83 2.10 1.88 0.97 0.61 0.63 0.91 2.92 6.41 5.88 0.78 0.03 0.08 0.22 0.21 0.13 0.12 0.12 0.35 0.46 0.64 0.66 0.42 0.19 0.38 0.54 0.55 0.72 0.85 1.05 1.38 1.49 1.69 2.97
1.38 1.39 1.35 1.42 1.49 1.62 2.05 2.06 2.16 1.83 1.81 1.90 1.82 2.07 2.36 1.88 1.12 0.80 1.22 2.71 6.60 6.52 1.46 0.17 0.07 0.12 0.20 0.30 0.39 0.45 0.63 0.75 1.09 1.40 0.87 0.41 0.21 0.07 0.21 0.47 0.54 1.03 1.93 3.26 3.31 3.14 2.92
1.57 1.41 1.30 1.28 1.28 1.32 1.83 2.10 2.14 2.16 2.01 2.24 2.29 2.20 2.52 1.62 1.30 1.70 2.91 5.70 7.19 2.05 0.24 0.06 0.04 0.07 0.24 0.42 0.52 0.57 0.83 1.09 1.21 1.44 1.66 1.44 0.94 0.34 0.37 0.56 0.65 0.58 1.34 3.14 3.62 1.97 1.20
1.69 1.59 1.46 1.35 1.22 1.27 1.49 2.08 2.18 2.37 2.38 2.60 3.14 2.81 2.72 1.79 1.72 2.82 5.50 7.57 3.31 0.68 0.37 0.24 0.11 0.45 0.68 0.76 0.97 0.76 0.68 0.97 1.58 2.44 3.67 3.58 2.70 1.07 0.63 0.53 0.71 0.87 1.18 1.28 2.62 2.08 2.93
1.86 1.86 1.67 1.60 1.30 1.33 1.51 2.18 2.31 2.58 2.62 2.99 3.77 3.76 2.55 1.66 2.44 4.25 7.38 4.96 1.20 0.42 0.76 0.92 1.27 1.22 1.20 0.86 1.30 1.58 1.60 1.77 1.73 2.04 2.67 3.83 3.64 1.59 1.33 1.25 1.19 1.32 1.50 2.62 4.33 6.15 4.75
2.05 2.03 1.70 1.65 1.48 1.39 1.49 2.26 2.63 2.56 2.96 3.32 3.93 4.55 2.14 2.19 4.70 6.87 6.67 2.36 0.55 0.15 0.29 1.14 1.71 1.65 1.13 1.06 1.33 1.50 1.65 1.24 1.09 1.42 1.67 2.31 3.35 1.53 0.97 1.65 2.24 2.34 2.83 3.57 4.99 5.41 5.09
2.25 2.24 1.89 1.77 1.67 1.48 1.54 2.20 2.87 3.01 3.86 4.72 5.07 4.40 2.04 3.60 7.00 6.53 3.28 1.12 0.55 0.31 0.31 0.81 1.13 1.27 1.33 1.34 1.49 2.07 1.60 1.20 0.65 0.81 1.13 1.23 2.46 1.38 0.88 0.62 0.84 1.41 2.60 4.04 5.78 5.27 4.79
2.55 2.43 2.05 1.97 1.92 1.62 1.57 2.04 3.11 3.51 4.44 5.45 6.01 3.69 3.05 4.72 6.04 3.29 1.41 0.68 0.64 0.60 0.50 0.96 1.11 1.35 1.51 1.59 1.82 1.36 1.49 0.92 0.70 0.95 1.39 1.43 2.28 1.91 1.16 1.06 1.27 1.42 1.62 2.38 3.68 4.73 4.97
2.59 2.55 2.24 2.14 2.28 1.98 1.71 1.99 3.24 3.61 4.49 6.04 6.65 4.89 4.81 6.10 3.58 1.44 1.32 1.25 1.04 0.60 0.63 0.77 1.18 1.30 1.32 1.08 1.00 1.19 0.90 0.51 0.33 0.45 0.76 1.41 2.21 1.75 1.59 1.49 1.78 1.96 1.60 1.64 2.70 4.36 3.45
2.87 2.70 2.39 2.19 2.48 2.23 1.95 1.99 3.15 3.99 5.11 7.40 8.23 4.33 2.40 3.36 2.79 1.61 1.50 1.71 1.15 0.90 0.79 0.65 1.09 1.04 1.23 1.42 0.83 0.66 0.66 0.47 0.30 0.30 0.41 1.04 2.08 1.22 0.99 1.00 0.83 1.14 1.45 1.62 1.92 2.05 2.64
2.90 2.80 2.59 2.33 2.57 2.42 2.18 2.22 3.03 4.29 6.37 9.46 7.81 2.64 1.49 0.99 0.74 1.41 2.56 2.34 1.24 0.88 1.19 0.86 0.79 0.54 0.83 1.23 1.12 0.94 0.85 0.90 0.78 0.48 0.55 0.72 1.41 1.18 0.99 0.76 0.59 0.87 1.10 0.81 0.97 1.52 1.73
3.09 3.02 2.92 2.68 2.77 2.48 2.60 2.58 3.15 4.38 7.36 10.55 5.95 2.01 2.40 1.56 0.87 1.51 1.64 1.28 1.03 1.18 1.05 0.77 0.92 1.17 1.00 0.71 0.70 0.73 0.65 0.75 0.80 0.86 0.89 0.86 1.09 1.19 0.96 0.43 0.66 1.53 1.34 0.74 0.57 0.62 0.68
3.09 3.17 2.89 3.25 3.03 2.67 2.61 2.93 3.63 4.50 5.78 5.81 3.72 1.98 3.35 2.67 1.47 1.08 0.73 0.81 0.94 1.22 1.51 0.73 0.71 0.89 0.65 0.50 0.59 0.65 0.59 0.43 0.46 0.45 0.82 1.22 0.96 1.33 1.04 0.84 1.87 1.32 0.52 0.42 0.31 0.33 0.43
2.84 3.15 2.78 3.05 3.42 2.94 2.57 2.82 3.95 4.49 4.11 3.85 2.98 2.72 3.49 2.54 0.92 0.88 0.89 0.82 0.79 1.17 1.29 0.86 0.61 0.68 0.74 0.87 1.33 1.12 0.83 0.70 0.31 0.30 0.33 0.53 1.11 1.69 1.41 0.93 0.80 0.47 0.25 0.32 0.39 0.38 0.26
2.92 3.08 2.65 2.80 3.22 3.28 2.81 2.86 3.74 4.28 3.84 3.88 2.89 3.10 4.28 3.60 1.38 0.59 1.10 1.27 1.20 1.48 1.63 0.99 0.50 0.36 0.73 1.19 1.64 1.38 0.82 0.66 0.48 0.43 0.37 0.65 1.09 2.22 1.93 1.43 0.87 0.52 0.14 0.12 0.38 0.83 0.26
3.45 3.14 2.71 2.63 2.79 3.07 3.14 3.13 3.19 3.76 4.02 4.20 3.34 2.66 4.95 4.52 1.04 0.60 0.92 1.15 1.40 1.36 1.71 1.24 0.91 0.89 1.09 1.61 1.67 1.12 0.85 0.61 0.83 0.66 0.71 1.06 1.72 2.46 2.31 2.47 1.18 0.36 0.16 0.17 0.97 1.24 0.37
3.43 3.40 2.53 2.44 2.55 2.44 2.59 3.25 3.48 3.39 3.95 5.01 3.87 2.37 3.52 4.01 1.35 0.65 0.60 0.84 0.91 1.32 1.56 1.77 1.83 1.88 1.97 2.09 1.78 1.31 1.09 1.00 0.89 0.76 0.78 1.13 1.56 1.67 1.94 2.48 1.86 0.56 0.57 0.90 1.12 0.50 0.23
3.06 3.42 2.57 2.43 2.53 2.37 2.13 2.46 3.52 3.63 3.82 4.91 4.73 3.00 3.23 3.71 2.12 0.89 0.45 0.43 0.56 0.86 1.26 1.44 1.82 1.52 2.18 2.45 1.93 1.29 1.06 1.09 0.89 1.20 0.68 1.11 0.93 1.16 1.29 1.78 1.42 1.10 1.03 0.64 0.39 0.48 0.39